| time (UTC) | temp F | wind direction | speed MPH | gust MPH | rain 1hr in | rain 24hr in | rain mn in | humidity % | barometer mb |
| 20260507163323 | 53 | 135 | 8.0 | 9.0 | 0.00 | 0.98 | 0.27 | 70 | 1007.3 |
| 20260507161424 | 54 | 135 | 8.0 | 9.0 | 0.00 | 0.98 | 0.27 | 64 | 1007.5 |
| 20260507160522 | 54 | 135 | 4.0 | 5.0 | 0.00 | 0.98 | 0.27 | 60 | 1007.5 |
| 20260507155524 | 54 | 135 | 3.0 | 4.0 | 0.00 | 0.98 | 0.27 | 63 | 1007.6 |
| 20260507151725 | 52 | 135 | 6.0 | 7.0 | 0.00 | 0.98 | 0.27 | 69 | 1008.1 |
| 20260507145825 | 53 | 135 | 5.0 | 5.0 | 0.00 | 0.98 | 0.27 | 68 | 1008.1 |
| 20260507143825 | 52 | 180 | 4.0 | 4.0 | 0.00 | 0.98 | 0.27 | 69 | 1008.4 |
| 20260507142825 | 53 | 180 | 3.0 | 3.0 | 0.00 | 0.98 | 0.27 | 69 | 1008.5 |
| 20260507141824 | 53 | 180 | 2.0 | 3.0 | 0.00 | 0.98 | 0.27 | 70 | 1008.6 |
| 20260507140823 | 53 | 202 | 3.0 | 3.0 | 0.00 | 0.98 | 0.27 | 71 | 1008.6 |
| 20260507135824 | 51 | 225 | 3.0 | 3.0 | 0.00 | 0.98 | 0.27 | 71 | 1008.7 |
| 20260507134922 | 51 | 231 | 5.0 | 6.0 | 0.00 | 0.98 | 0.27 | 72 | 1008.6 |
| 20260507132023 | 50 | 246 | 5.0 | 6.0 | 0.00 | 0.98 | 0.27 | 76 | 1009.2 |
| 20260507131025 | 50 | 270 | 5.0 | 7.0 | 0.00 | 0.98 | 0.27 | 77 | 1008.7 |
| 20260507130124 | 49 | 238 | 5.0 | 7.0 | 0.00 | 0.98 | 0.27 | 77 | 1008.9 |
| 20260507125222 | 49 | 233 | 6.0 | 7.0 | 0.00 | 0.98 | 0.27 | 77 | 1008.9 |
| 20260507123223 | 48 | 248 | 7.0 | 9.0 | 0.00 | 0.98 | 0.27 | 80 | 1008.4 |
| 20260507122223 | 48 | 257 | 7.0 | 9.0 | 0.00 | 0.98 | 0.27 | 80 | 1008.4 |
| 20260507121222 | 48 | 247 | 6.0 | 7.0 | 0.00 | 0.98 | 0.27 | 79 | 1008.5 |
| 20260507120322 | 48 | 358 | 1.0 | 3.0 | 0.00 | 0.98 | 0.27 | 80 | 1008.0 |
| 20260507114323 | 47 | 247 | 7.0 | 9.0 | 0.00 | 0.98 | 0.27 | 81 | 1008.6 |
| 20260507113324 | 48 | 225 | 7.0 | 8.0 | 0.00 | 0.98 | 0.27 | 79 | 1009.4 |
| 20260507112324 | 48 | 225 | 5.0 | 6.0 | 0.00 | 0.98 | 0.27 | 81 | 1009.1 |
| 20260507111324 | 47 | 225 | 6.0 | 9.0 | 0.00 | 0.98 | 0.27 | 82 | 1009.5 |
| 20260507110323 | 47 | 237 | 10.0 | 11.0 | 0.00 | 0.98 | 0.27 | 82 | 1009.1 |
| 20260507105324 | 48 | 225 | 10.0 | 11.0 | 0.00 | 0.98 | 0.27 | 81 | 1009.0 |
| 20260507104423 | 47 | 225 | 8.0 | 9.0 | 0.00 | 0.98 | 0.27 | 83 | 1008.9 |
| 20260507102523 | 47 | 247 | 8.0 | 10.0 | 0.00 | 0.98 | 0.27 | 86 | 1008.5 |
| 20260507100523 | 48 | 270 | 6.0 | 8.0 | 0.00 | 0.98 | 0.27 | 87 | 1007.8 |
| 20260507091523 | 48 | 247 | 8.0 | 8.0 | 0.00 | 0.98 | 0.27 | 86 | 1008.0 |
| 20260507090523 | 48 | 247 | 8.0 | 11.0 | 0.00 | 0.98 | 0.27 | 86 | 1008.2 |
| 20260507085523 | 48 | 225 | 14.0 | 16.0 | 0.00 | 0.98 | 0.27 | 86 | 1008.1 |
| 20260507084522 | 48 | 247 | 11.0 | 13.0 | 0.00 | 0.98 | 0.27 | 86 | 1007.6 |
| 20260507083523 | 48 | 270 | 11.0 | 15.0 | 0.00 | 0.98 | 0.27 | 87 | 1007.5 |
| 20260507082525 | 48 | 248 | 10.0 | 12.0 | 0.00 | 0.98 | 0.27 | 87 | 1007.4 |
| 20260507081524 | 48 | 247 | 13.0 | 14.0 | 0.00 | 0.98 | 0.27 | 88 | 1007.3 |
| 20260507080523 | 48 | 225 | 14.0 | 16.0 | 0.01 | 0.98 | 0.27 | 87 | 1007.4 |
| 20260507075523 | 48 | 247 | 13.0 | 14.0 | 0.01 | 0.98 | 0.27 | 88 | 1007.2 |
| 20260507074622 | 48 | 267 | 11.0 | 12.0 | 0.01 | 0.98 | 0.27 | 89 | 1007.2 |
| 20260507072722 | 48 | 247 | 10.0 | 13.0 | 0.01 | 0.98 | 0.27 | 89 | 1007.3 |
| 20260507071723 | 49 | 241 | 12.0 | 13.0 | 0.01 | 0.98 | 0.27 | 89 | 1007.0 |
| 20260507070724 | 49 | 248 | 7.0 | 9.0 | 0.00 | 0.97 | 0.26 | 90 | 1006.8 |
| 20260507064724 | 49 | 225 | 6.0 | 8.0 | 0.23 | 0.97 | 0.26 | 91 | 1007.0 |
| 20260507063822 | 49 | 225 | 8.0 | 9.0 | 0.26 | 0.97 | 0.26 | 91 | 1006.9 |
| 20260507062825 | 49 | 225 | 7.0 | 9.0 | 0.26 | 0.97 | 0.26 | 94 | 1006.7 |
| 20260507061824 | 48 | 225 | 6.0 | 7.0 | 0.26 | 0.97 | 0.26 | 95 | 1006.7 |
| 20260507060922 | 48 | 225 | 5.0 | 6.0 | 0.26 | 0.97 | 0.26 | 95 | 1006.7 |
| 20260507055924 | 48 | 225 | 11.0 | 13.0 | 0.23 | 0.94 | 0.21 | 96 | 1007.1 |
| 20260507054924 | 48 | 135 | 10.0 | 11.0 | 0.07 | 0.78 | 0.05 | 96 | 1007.3 |
| 20260507053924 | 48 | 135 | 10.0 | 11.0 | 0.00 | 0.71 | 0.00 | 96 | 1006.6 |
| 20260507052925 | 48 | 133 | 9.0 | 12.0 | 0.00 | 0.71 | 0.00 | 96 | 1006.6 |
| 20260507051026 | 48 | 153 | 6.0 | 8.0 | 0.00 | 0.71 | 0.00 | 96 | 1007.1 |
| 20260507050924 | 48 | 148 | 9.0 | 10.0 | 0.00 | 0.71 | 0.00 | 96 | 1007.1 |
| 20260507050023 | 48 | 135 | 9.0 | 11.0 | 0.00 | 0.71 | 0.00 | 96 | 1007.1 |
| 20260507044122 | 48 | 127 | 13.0 | 14.0 | 0.00 | 0.71 | 0.00 | 96 | 1006.9 |
| 20260507043123 | 48 | 117 | 11.0 | 14.0 | 0.00 | 0.71 | 0.00 | 95 | 1006.8 |
| 20260507040124 | 48 | 132 | 18.0 | 22.0 | 0.01 | 0.71 | 0.00 | 95 | 1007.4 |
| 20260507035217 | 48 | 129 | 14.0 | 18.0 | 0.02 | 0.71 | 0.71 | 95 | 1007.3 |
| 20260507034215 | 48 | 135 | 15.0 | 18.0 | 0.03 | 0.71 | 0.71 | 94 | 1007.5 |
| 20260507033216 | 48 | 124 | 15.0 | 18.0 | 0.05 | 0.71 | 0.71 | 94 | 1007.4 |
| 20260507031315 | 49 | 127 | 22.0 | 27.0 | 0.11 | 0.71 | 0.71 | 94 | 1007.7 |
| 20260507030315 | 49 | 127 | 20.0 | 23.0 | 0.13 | 0.70 | 0.70 | 94 | 1007.8 |
| 20260507025314 | 50 | 133 | 17.0 | 20.0 | 0.19 | 0.69 | 0.69 | 94 | 1007.9 |
| 20260507023316 | 50 | 106 | 21.0 | 26.0 | 0.22 | 0.66 | 0.66 | 94 | 1008.1 |
| 20260507022316 | 50 | 91 | 19.0 | 24.0 | 0.22 | 0.63 | 0.62 | 94 | 1008.4 |
| 20260507021316 | 50 | 91 | 19.0 | 22.0 | 0.22 | 0.60 | 0.60 | 93 | 1008.4 |
| 20260507020415 | 50 | 95 | 18.0 | 24.0 | 0.20 | 0.57 | 0.57 | 94 | 1008.7 |
| 20260507015415 | 50 | 90 | 21.0 | 25.0 | 0.17 | 0.51 | 0.50 | 93 | 1008.7 |
| 20260507013515 | 50 | 90 | 18.0 | 24.0 | 0.13 | 0.44 | 0.44 | 92 | 1009.2 |
| 20260507012515 | 50 | 90 | 18.0 | 21.0 | 0.15 | 0.41 | 0.41 | 93 | 1009.5 |
| 20260507011514 | 50 | 90 | 19.0 | 22.0 | 0.18 | 0.39 | 0.39 | 93 | 1009.8 |
| 20260507010515 | 50 | 105 | 21.0 | 24.0 | 0.21 | 0.37 | 0.37 | 93 | 1009.9 |
| 20260507005516 | 50 | 94 | 15.0 | 18.0 | 0.24 | 0.34 | 0.34 | 93 | 1010.0 |
| 20260507003614 | 50 | 92 | 13.0 | 16.0 | 0.23 | 0.31 | 0.31 | 91 | 1010.3 |
| 20260507002616 | 51 | 106 | 19.0 | 23.0 | 0.19 | 0.26 | 0.26 | 91 | 1010.2 |
| 20260507001615 | 51 | 99 | 18.0 | 23.0 | 0.15 | 0.22 | 0.21 | 92 | 1010.6 |
| 20260506235615 | 51 | 104 | 20.0 | 25.0 | 0.04 | 0.10 | 0.10 | 89 | 1010.7 |
| 20260506234615 | 51 | 108 | 17.0 | 21.0 | 0.03 | 0.09 | 0.09 | 90 | 1011.1 |
| 20260506233616 | 51 | 113 | 18.0 | 21.0 | 0.03 | 0.08 | 0.08 | 90 | 1010.7 |
| 20260506232617 | 51 | 111 | 19.0 | 24.0 | 0.03 | 0.07 | 0.07 | 89 | 1010.8 |
| 20260506231615 | 50 | 92 | 15.0 | 19.0 | 0.04 | 0.07 | 0.07 | 91 | 1011.0 |
| 20260506230615 | 50 | 92 | 16.0 | 18.0 | 0.05 | 0.07 | 0.07 | 90 | 1010.6 |
| 20260506225714 | 50 | 90 | 17.0 | 23.0 | 0.05 | 0.06 | 0.06 | 91 | 1010.5 |
| 20260506224715 | 50 | 90 | 16.0 | 20.0 | 0.05 | 0.06 | 0.06 | 90 | 1010.9 |
| 20260506222714 | 50 | 90 | 18.0 | 22.0 | 0.04 | 0.04 | 0.04 | 91 | 1011.2 |
| 20260506221716 | 50 | 96 | 19.0 | 23.0 | 0.03 | 0.03 | 0.03 | 91 | 1011.3 |
| 20260506220815 | 50 | 92 | 18.0 | 23.0 | 0.02 | 0.02 | 0.02 | 90 | 1011.8 |
| 20260506215816 | 50 | 98 | 17.0 | 21.0 | 0.01 | 0.01 | 0.01 | 90 | 1012.1 |
| 20260506211816 | 49 | 90 | 13.0 | 14.0 | 0.00 | 0.00 | 0.00 | 89 | 1011.8 |
| 20260506210815 | 49 | 102 | 16.0 | 19.0 | 0.00 | 0.00 | 0.00 | 89 | 1012.3 |
| 20260506205815 | 49 | 90 | 18.0 | 22.0 | 0.00 | 0.00 | 0.00 | 88 | 1012.3 |
| 20260506204815 | 50 | 101 | 20.0 | 24.0 | 0.00 | 0.00 | 0.00 | 88 | 1012.6 |
| 20260506202915 | 50 | 128 | 18.0 | 22.0 | 0.00 | 0.00 | 0.00 | 87 | 1012.1 |
| 20260506200916 | 50 | 113 | 19.0 | 21.0 | 0.00 | 0.00 | 0.00 | 86 | 1012.4 |
| 20260506195916 | 51 | 94 | 22.0 | 28.0 | 0.00 | 0.00 | 0.00 | 87 | 1011.7 |
| 20260506194915 | 51 | 95 | 20.0 | 24.0 | 0.00 | 0.00 | 0.00 | 86 | 1011.9 |
| 20260506193915 | 51 | 97 | 20.0 | 24.0 | 0.00 | 0.00 | 0.00 | 86 | 1011.9 |
| 20260506192916 | 51 | 93 | 20.0 | 24.0 | 0.00 | 0.00 | 0.00 | 85 | 1011.9 |
| 20260506191918 | 51 | 90 | 21.0 | 24.0 | 0.00 | 0.00 | 0.00 | 84 | 1012.2 |
| 20260506185915 | 51 | 92 | 19.0 | 22.0 | 0.00 | 0.00 | 0.00 | 86 | 1012.4 |
| 20260506184915 | 51 | 92 | 17.0 | 23.0 | 0.00 | 0.00 | 0.00 | 86 | 1012.4 |
| 20260506181915 | 51 | 90 | 20.0 | 26.0 | 0.00 | 0.00 | 0.00 | 86 | 1012.7 |
| 20260506180915 | 50 | 90 | 15.0 | 18.0 | 0.00 | 0.00 | 0.00 | 87 | 1013.0 |
| 20260506175917 | 50 | 90 | 17.0 | 21.0 | 0.00 | 0.00 | 0.00 | 86 | 1012.9 |
| 20260506174916 | 51 | 90 | 15.0 | 20.0 | 0.00 | 0.00 | 0.00 | 87 | 1013.0 |
| 20260506173915 | 51 | 90 | 15.0 | 18.0 | 0.00 | 0.00 | 0.00 | 85 | 1013.0 |
| 20260506172915 | 51 | 90 | 15.0 | 18.0 | 0.00 | 0.00 | 0.00 | 86 | 1013.4 |
| 20260506171917 | 51 | 90 | 18.0 | 21.0 | 0.00 | 0.00 | 0.00 | 84 | 1013.3 |
| 20260506170014 | 51 | 90 | 18.0 | 23.0 | 0.00 | 0.00 | 0.00 | 84 | 1013.3 |
| 20260506165015 | 51 | 90 | 15.0 | 19.0 | 0.00 | 0.00 | 0.00 | 85 | 1013.6 |